E20ZNR-1 Weather Reports


time (UTC)temp
C
wind
direction
speed
KPH
gust
KPH
rain 1hr
cm
rain 24hr
cm
rain mn
cm
humidity
%
barometer
mb
20260505032138 34 0 0.0 0.0 0.00 0.00 0.00 66 1008.0
20260505030613 35 0 0.0 0.0 0.00 0.00 0.00 69 1009.0
20260505025047 33 0 0.0 0.0 0.00 0.00 0.00 69 1009.0
20260505023523 -17 0 0.0 0.0 0.00 0.00 0.00
20260505021957 33 0 0.0 0.0 0.00 0.00 0.00 70 1008.0
20260505020431 32 0 0.0 0.0 0.00 0.00 0.00 79 1008.0
20260505014906 38 0 0.0 0.0 0.00 0.00 0.00 53 1009.0
20260505013341 35 0 0.0 0.0 0.00 0.00 0.00 68 1008.0
20260505011816 32 0 0.0 0.0 0.00 0.00 0.00 75 1008.0
20260505010250 36 0 0.0 0.0 0.00 0.00 0.00 69 1008.0
20260505004725 27 0 0.0 0.0 0.00 0.00 0.00 99 1008.0
20260505003159 26 0 0.0 0.0 0.00 0.00 0.00 99 1008.0
20260505001633 26 0 0.0 0.0 0.00 0.00 0.00 99 1008.0
20260505000108 26 0 0.0 0.0 0.00 0.00 0.00 99 1008.0
20260504234542 26 0 0.0 0.0 0.00 0.00 0.00 99 1007.0
20260504233018 26 0 0.0 0.0 0.00 0.00 0.00 99 1007.0
20260504231452 25 0 0.0 0.0 0.00 0.00 0.00 99 1007.0
20260504225926 25 0 0.0 0.0 0.00 0.00 0.00 99 1006.0
20260504224359 25 0 0.0 0.0 0.00 0.00 0.00 99 1006.0
20260504222834 25 0 0.0 0.0 0.00 0.00 0.00 99 1006.0
20260504221309 25 0 0.0 0.0 0.00 0.00 0.00 99 1006.0
20260504215744 25 0 0.0 0.0 0.00 0.00 0.00 99 1006.0
20260504214217 25 0 0.0 0.0 0.00 0.00 0.00 99 1006.0
20260504212652 25 0 0.0 0.0 0.00 0.00 0.00 99 1006.0
20260504211127 25 0 0.0 0.0 0.00 0.00 0.00 99 1005.0
20260504205601 25 0 0.0 0.0 0.00 0.00 0.00 99 1006.0
20260504204036 26 0 0.0 0.0 0.00 0.00 0.00 99 1006.0
20260504202455 26 0 0.0 0.0 0.00 0.00 0.00 99 1006.0
20260504200930 26 0 0.0 0.0 0.00 0.00 0.00 99 1006.0
20260504195405 26 0 0.0 0.0 0.00 0.00 0.00 99 1006.0
20260504193840 26 0 0.0 0.0 0.00 0.00 0.00 99 1007.0
20260504192315 26 0 0.0 0.0 0.00 0.00 0.00 99 1008.0
20260504190750 26 0 0.0 0.0 0.00 0.00 0.00 99 1008.0
20260504185225 26 0 0.0 0.0 0.00 0.00 0.00 99 1008.0
20260504183659 26 0 0.0 0.0 0.00 0.00 0.00 99 1008.0
20260504182135 26 0 0.0 0.0 0.00 0.00 0.00 99 1008.0
20260504180610 27 0 0.0 0.0 0.00 0.00 0.00 99 1008.0
20260504175045 27 0 0.0 0.0 0.00 0.00 0.00 99 1008.0
20260504173520 27 0 0.0 0.0 0.00 0.00 0.00 99 1008.0
20260504171954 27 0 0.0 0.0 0.00 0.00 0.00 99 1008.0
20260504170428 27 0 0.0 0.0 0.00 0.00 0.00 99 1008.0
20260504160248 27 0 0.0 0.0 0.00 0.00 0.00 99 1008.0
20260504150108 28 0 0.0 0.0 0.00 0.00 0.00 99 1007.0
20260504140117 28 0 0.0 0.0 0.00 0.00 0.00 99 1007.0
20260504130800 28 0 0.0 0.0 0.00 0.00 0.00 99 1005.0
20260504081556 28 0 0.0 0.0 0.00 0.00 0.00 97 1004.0
20260504045450 36 0 0.0 0.0 0.00 0.00 0.00 59 1006.0
20260504043925 36 0 0.0 0.0 0.00 0.00 0.00 60 1006.0
20260504042400 37 0 0.0 0.0 0.00 0.00 0.00 58 1007.0
20260504040836 37 0 0.0 0.0 0.00 0.00 0.00 58 1007.0
20260504035310 36 0 0.0 0.0 0.00 0.00 0.00 59 1007.0
20260504033745 36 0 0.0 0.0 0.00 0.00 0.00 57 1007.0